Time,TemperatureF,DewpointF,PressureIn,WindDirection,WindDirectionDegrees,WindSpeedMPH,WindSpeedGustMPH,Humidity,HourlyPrecipIn,Conditions,Clouds,dailyrainin,SoftwareType,DateUTC
2017-03-27 00:00:00,45.0,42.2,29.92,ENE,67,5.3,-999.0,90,-99.99,,,0.00,,2017-03-27 05:00:00,
2017-03-27 00:06:00,45.0,42.2,29.93,NE,45,5.8,-999.0,90,-99.99,,,0.00,,2017-03-27 05:06:00,
2017-03-27 00:11:00,45.0,42.2,29.93,NNE,22,4.7,-999.0,90,-99.99,,,0.00,,2017-03-27 05:11:00,
2017-03-27 00:17:00,45.0,42.2,29.93,NE,45,3.7,-999.0,90,-99.99,,,0.00,,2017-03-27 05:17:00,
2017-03-27 00:22:00,45.0,42.2,29.93,ESE,112,0.0,-999.0,90,-99.99,,,0.00,,2017-03-27 05:22:00,
2017-03-27 00:27:00,45.0,42.2,29.96,SSW,202,0.0,-999.0,90,-99.99,,,0.00,,2017-03-27 05:27:00,
2017-03-27 00:33:00,45.0,42.5,29.96,SSE,157,2.2,-999.0,91,-99.99,,,0.00,,2017-03-27 05:33:00,
2017-03-27 00:38:00,45.0,42.5,29.96,SSE,157,2.7,-999.0,91,-99.99,,,0.00,,2017-03-27 05:38:00,
2017-03-27 00:44:00,45.0,42.5,29.96,SSE,157,4.7,-999.0,91,-99.99,,,0.00,,2017-03-27 05:44:00,
2017-03-27 00:49:00,45.0,42.8,29.96,SSE,157,2.2,-999.0,92,-99.99,,,0.00,,2017-03-27 05:49:00,
2017-03-27 00:55:00,45.0,42.8,29.96,ESE,112,3.7,-999.0,92,-99.99,,,0.00,,2017-03-27 05:55:00,
2017-03-27 01:00:00,45.0,42.8,29.96,SSE,157,2.7,-999.0,92,-99.99,,,0.01,,2017-03-27 06:00:00,
2017-03-27 01:06:00,44.8,42.6,29.95,SSE,157,1.7,-999.0,92,-99.99,,,0.01,,2017-03-27 06:06:00,
2017-03-27 01:12:00,44.8,42.6,29.95,ESE,112,3.2,-999.0,92,-99.99,,,0.01,,2017-03-27 06:12:00,
2017-03-27 01:17:00,44.8,42.6,29.95,ESE,112,4.2,-999.0,92,-99.99,,,0.01,,2017-03-27 06:17:00,
2017-03-27 01:23:00,44.6,42.7,29.95,ESE,112,5.8,-999.0,93,-99.99,,,0.01,,2017-03-27 06:23:00,
2017-03-27 01:28:00,44.6,42.7,29.94,East,90,4.7,-999.0,93,-99.99,,,0.01,,2017-03-27 06:28:00,
2017-03-27 01:34:00,44.6,42.7,29.94,ESE,112,4.7,-999.0,93,-99.99,,,0.01,,2017-03-27 06:34:00,
2017-03-27 01:39:00,44.6,42.7,29.94,East,90,4.7,-999.0,93,-99.99,,,0.01,,2017-03-27 06:39:00,
2017-03-27 01:45:00,44.6,42.7,29.94,ESE,112,4.7,-999.0,93,-99.99,,,0.01,,2017-03-27 06:45:00,
2017-03-27 01:51:00,44.6,42.7,29.93,ESE,112,4.7,-999.0,93,-99.99,,,0.02,,2017-03-27 06:51:00,
2017-03-27 01:57:00,44.4,42.5,29.93,ESE,112,3.7,-999.0,93,-99.99,,,0.02,,2017-03-27 06:57:00,
2017-03-27 02:02:00,44.4,42.5,29.93,East,90,4.7,-999.0,93,-99.99,,,0.02,,2017-03-27 07:02:00,
2017-03-27 02:08:00,44.4,42.8,29.93,ENE,67,3.7,-999.0,94,-99.99,,,0.03,,2017-03-27 07:08:00,
2017-03-27 02:15:00,44.2,42.6,29.93,ENE,67,3.2,-999.0,94,-99.99,,,0.03,,2017-03-27 07:15:00,
2017-03-27 02:21:00,44.2,42.6,29.92,NE,45,4.2,-999.0,94,-99.99,,,0.03,,2017-03-27 07:21:00,
2017-03-27 02:26:00,44.2,42.6,29.91,NNE,22,4.7,-999.0,94,-99.99,,,0.04,,2017-03-27 07:26:00,
2017-03-27 02:32:00,44.2,42.6,29.91,NNE,22,3.7,-999.0,94,-99.99,,,0.04,,2017-03-27 07:32:00,
2017-03-27 02:37:00,44.2,42.6,29.90,NE,45,4.7,-999.0,94,-99.99,,,0.05,,2017-03-27 07:37:00,
2017-03-27 02:43:00,44.2,42.6,29.90,NNE,22,3.2,-999.0,94,-99.99,,,0.05,,2017-03-27 07:43:00,
2017-03-27 02:48:00,44.2,42.6,29.90,NE,45,3.7,-999.0,94,-99.99,,,0.05,,2017-03-27 07:48:00,
2017-03-27 02:54:00,44.2,42.6,29.89,NNE,22,5.8,-999.0,94,-99.99,,,0.05,,2017-03-27 07:54:00,
2017-03-27 02:59:00,44.2,42.6,29.89,NNE,22,5.3,-999.0,94,-99.99,,,0.05,,2017-03-27 07:59:00,
2017-03-27 03:05:00,44.2,42.6,29.89,ENE,67,4.2,-999.0,94,-99.99,,,0.05,,2017-03-27 08:05:00,
2017-03-27 03:10:00,44.1,42.5,29.89,ENE,67,4.2,-999.0,94,-99.99,,,0.05,,2017-03-27 08:10:00,
2017-03-27 03:16:00,44.1,42.5,29.90,NE,45,3.2,-999.0,94,-99.99,,,0.05,,2017-03-27 08:16:00,
2017-03-27 03:21:00,44.1,42.5,29.90,NNE,22,4.2,-999.0,94,-99.99,,,0.06,,2017-03-27 08:21:00,
2017-03-27 03:26:00,44.1,42.5,29.90,NNE,22,5.8,-999.0,94,-99.99,,,0.06,,2017-03-27 08:26:00,
2017-03-27 03:32:00,44.1,42.8,29.90,NNE,22,3.2,-999.0,95,-99.99,,,0.06,,2017-03-27 08:32:00,
2017-03-27 03:37:00,44.1,42.8,29.90,NE,45,4.7,-999.0,95,-99.99,,,0.06,,2017-03-27 08:37:00,
2017-03-27 03:43:00,44.1,42.8,29.90,NE,45,5.3,-999.0,95,-99.99,,,0.07,,2017-03-27 08:43:00,
2017-03-27 03:49:00,44.1,42.8,29.90,NE,45,4.7,-999.0,95,-99.99,,,0.08,,2017-03-27 08:49:00,
2017-03-27 03:54:00,44.1,42.8,29.89,NNE,22,5.8,-999.0,95,-99.99,,,0.09,,2017-03-27 08:54:00,
2017-03-27 04:00:00,44.1,42.8,29.89,NNE,22,5.3,-999.0,95,-99.99,,,0.09,,2017-03-27 09:00:00,
2017-03-27 04:05:00,44.2,42.9,29.89,NE,45,5.3,-999.0,95,-99.99,,,0.10,,2017-03-27 09:05:00,
2017-03-27 04:10:00,44.2,42.9,29.89,NE,45,7.8,-999.0,95,-99.99,,,0.11,,2017-03-27 09:10:00,
2017-03-27 04:15:00,44.2,42.9,29.88,NE,45,5.3,-999.0,95,-99.99,,,0.11,,2017-03-27 09:15:00,
2017-03-27 04:21:00,44.2,42.9,29.88,NNE,22,5.3,-999.0,95,-99.99,,,0.12,,2017-03-27 09:21:00,
2017-03-27 04:26:00,44.2,42.9,29.89,NNE,22,4.2,-999.0,95,-99.99,,,0.12,,2017-03-27 09:26:00,
2017-03-27 04:31:00,44.2,42.9,29.89,NE,45,5.3,-999.0,95,-99.99,,,0.13,,2017-03-27 09:31:00,
2017-03-27 04:37:00,44.2,42.9,29.89,NNE,22,5.3,-999.0,95,-99.99,,,0.13,,2017-03-27 09:37:00,
2017-03-27 04:43:00,44.2,42.9,29.89,NNE,22,5.8,-999.0,95,-99.99,,,0.14,,2017-03-27 09:43:00,
2017-03-27 04:48:00,44.2,42.9,29.89,NNE,22,6.8,-999.0,95,-99.99,,,0.14,,2017-03-27 09:48:00,
2017-03-27 04:54:00,44.2,42.9,29.89,NNE,22,6.3,-999.0,95,-99.99,,,0.15,,2017-03-27 09:54:00,
2017-03-27 04:59:00,44.4,43.1,29.89,NNE,22,6.8,-999.0,95,-99.99,,,0.16,,2017-03-27 09:59:00,
2017-03-27 05:04:00,44.4,43.1,29.89,NNE,22,5.8,-999.0,95,-99.99,,,0.16,,2017-03-27 10:04:00,
2017-03-27 05:06:00,44.4,43.1,29.89,NNE,22,7.3,-999.0,95,-99.99,,,0.16,,2017-03-27 10:06:00,
2017-03-27 05:11:00,44.4,43.1,29.89,NNE,22,7.8,-999.0,95,-99.99,,,0.17,,2017-03-27 10:11:00,
2017-03-27 05:17:00,44.4,43.1,29.89,NNE,22,5.8,-999.0,95,-99.99,,,0.18,,2017-03-27 10:17:00,
2017-03-27 05:22:00,44.4,43.1,29.89,NNE,22,7.3,-999.0,95,-99.99,,,0.18,,2017-03-27 10:22:00,
2017-03-27 05:28:00,44.4,43.1,29.89,NNE,22,7.3,-999.0,95,-99.99,,,0.19,,2017-03-27 10:28:00,
2017-03-27 05:33:00,44.4,43.1,29.89,NNE,22,6.3,-999.0,95,-99.99,,,0.20,,2017-03-27 10:33:00,
2017-03-27 05:39:00,44.4,43.1,29.89,NNE,22,5.8,-999.0,95,-99.99,,,0.21,,2017-03-27 10:39:00,
2017-03-27 05:44:00,44.4,43.1,29.89,North,360,7.3,-999.0,95,-99.99,,,0.22,,2017-03-27 10:44:00,
2017-03-27 05:49:00,44.4,43.1,29.89,NNE,22,5.3,-999.0,95,-99.99,,,0.22,,2017-03-27 10:49:00,
2017-03-27 05:55:00,44.4,43.1,29.90,NNE,22,4.7,-999.0,95,-99.99,,,0.23,,2017-03-27 10:55:00,
2017-03-27 06:00:00,44.4,43.1,29.90,NNW,337,7.3,-999.0,95,-99.99,,,0.24,,2017-03-27 11:00:00,
2017-03-27 06:06:00,44.4,43.1,29.89,NE,45,7.3,-999.0,95,-99.99,,,0.24,,2017-03-27 11:06:00,
2017-03-27 06:11:00,44.4,43.1,29.89,NNE,22,7.3,-999.0,95,-99.99,,,0.25,,2017-03-27 11:11:00,
2017-03-27 06:17:00,44.4,43.1,29.89,NNE,22,8.3,-999.0,95,-99.99,,,0.25,,2017-03-27 11:17:00,
2017-03-27 06:23:00,44.4,43.1,29.89,NNW,337,9.4,-999.0,95,-99.99,,,0.26,,2017-03-27 11:23:00,
2017-03-27 06:28:00,44.4,43.1,29.90,NNE,22,4.7,-999.0,95,-99.99,,,0.26,,2017-03-27 11:28:00,
2017-03-27 06:33:00,44.4,43.1,29.90,NNE,22,6.8,-999.0,95,-99.99,,,0.27,,2017-03-27 11:33:00,
2017-03-27 06:39:00,44.4,43.1,29.90,NNE,22,5.3,-999.0,95,-99.99,,,0.27,,2017-03-27 11:39:00,
2017-03-27 06:44:00,44.4,43.1,29.90,NNE,22,5.3,-999.0,95,-99.99,,,0.28,,2017-03-27 11:44:00,
2017-03-27 06:49:00,44.4,43.1,29.90,NNE,22,4.2,-999.0,95,-99.99,,,0.28,,2017-03-27 11:49:00,
2017-03-27 06:55:00,44.4,43.1,29.91,NNE,22,5.3,-999.0,95,-99.99,,,0.29,,2017-03-27 11:55:00,
2017-03-27 07:00:00,44.4,43.1,29.91,NNW,337,4.7,-999.0,95,-99.99,,,0.30,,2017-03-27 12:00:00,
2017-03-27 07:06:00,44.4,43.1,29.91,NNE,22,3.7,-999.0,95,-99.99,,,0.30,,2017-03-27 12:06:00,
2017-03-27 07:11:00,44.4,43.1,29.91,NNE,22,6.3,-999.0,95,-99.99,,,0.31,,2017-03-27 12:11:00,
2017-03-27 07:17:00,44.4,43.1,29.91,North,360,4.2,-999.0,95,-99.99,,,0.32,,2017-03-27 12:17:00,
2017-03-27 07:23:00,44.4,43.1,29.91,NNW,337,4.7,-999.0,95,-99.99,,,0.32,,2017-03-27 12:23:00,
2017-03-27 07:28:00,44.4,43.1,29.92,NNE,22,6.3,-999.0,95,-99.99,,,0.33,,2017-03-27 12:28:00,
2017-03-27 07:34:00,44.4,43.1,29.92,NNE,22,6.8,-999.0,95,-99.99,,,0.34,,2017-03-27 12:34:00,
2017-03-27 07:39:00,44.4,43.1,29.92,NNW,337,4.7,-999.0,95,-99.99,,,0.35,,2017-03-27 12:39:00,
2017-03-27 07:45:00,44.4,43.1,29.92,NE,45,7.8,-999.0,95,-99.99,,,0.35,,2017-03-27 12:45:00,
2017-03-27 07:50:00,44.4,43.1,29.92,North,360,5.3,-999.0,95,-99.99,,,0.35,,2017-03-27 12:50:00,
2017-03-27 07:56:00,44.4,43.1,29.92,NNE,22,5.8,-999.0,95,-99.99,,,0.36,,2017-03-27 12:56:00,
2017-03-27 08:01:00,44.4,43.1,29.92,NNW,337,4.7,-999.0,95,-99.99,,,0.36,,2017-03-27 13:01:00,
2017-03-27 08:07:00,44.4,43.1,29.92,North,360,6.3,-999.0,95,-99.99,,,0.36,,2017-03-27 13:07:00,
2017-03-27 08:12:00,44.6,43.3,29.92,NNE,22,5.3,-999.0,95,-99.99,,,0.37,,2017-03-27 13:12:00,
2017-03-27 08:17:00,44.6,43.3,29.93,NNW,337,7.8,-999.0,95,-99.99,,,0.37,,2017-03-27 13:17:00,
2017-03-27 08:23:00,44.8,43.5,29.93,NNE,22,6.8,-999.0,95,-99.99,,,0.37,,2017-03-27 13:23:00,
2017-03-27 08:28:00,44.8,43.5,29.93,NNE,22,6.8,-999.0,95,-99.99,,,0.37,,2017-03-27 13:28:00,
2017-03-27 08:33:00,44.8,43.5,29.93,NNE,22,6.8,-999.0,95,-99.99,,,0.37,,2017-03-27 13:33:00,
2017-03-27 08:39:00,45.0,43.7,29.92,NE,45,5.8,-999.0,95,-99.99,,,0.38,,2017-03-27 13:39:00,
2017-03-27 08:45:00,45.1,43.8,29.92,NE,45,4.7,-999.0,95,-99.99,,,0.38,,2017-03-27 13:45:00,
2017-03-27 08:50:00,45.1,43.8,29.92,East,90,8.9,-999.0,95,-99.99,,,0.38,,2017-03-27 13:50:00,
2017-03-27 08:56:00,45.3,44.0,29.92,NE,45,8.3,-999.0,95,-99.99,,,0.38,,2017-03-27 13:56:00,
2017-03-27 09:01:00,45.5,43.9,29.92,NE,45,7.3,-999.0,94,-99.99,,,0.38,,2017-03-27 14:01:00,
2017-03-27 09:06:00,45.5,43.9,29.91,East,90,8.3,-999.0,94,-99.99,,,0.38,,2017-03-27 14:06:00,
2017-03-27 09:12:00,45.7,44.1,29.91,NE,45,7.8,-999.0,94,-99.99,,,0.38,,2017-03-27 14:12:00,
2017-03-27 09:17:00,45.7,43.8,29.91,NE,45,8.9,-999.0,93,-99.99,,,0.38,,2017-03-27 14:17:00,
2017-03-27 09:22:00,45.9,44.0,29.91,ENE,67,9.4,-999.0,93,-99.99,,,0.38,,2017-03-27 14:22:00,
2017-03-27 09:27:00,45.9,44.0,29.91,NNE,22,6.3,-999.0,93,-99.99,,,0.38,,2017-03-27 14:27:00,
2017-03-27 09:29:00,46.0,44.1,29.91,NNE,22,6.8,-999.0,93,-99.99,,,0.38,,2017-03-27 14:29:00,
2017-03-27 09:35:00,46.0,43.8,29.91,NNE,22,9.4,-999.0,92,-99.99,,,0.38,,2017-03-27 14:35:00,
2017-03-27 09:40:00,46.0,43.8,29.93,NNE,22,5.8,-999.0,92,-99.99,,,0.38,,2017-03-27 14:40:00,
2017-03-27 09:46:00,46.2,44.0,29.93,North,360,5.3,-999.0,92,-99.99,,,0.38,,2017-03-27 14:46:00,
2017-03-27 09:51:00,46.2,44.0,29.94,NNE,22,6.3,-999.0,92,-99.99,,,0.38,,2017-03-27 14:51:00,